sat.trackr.live / text

‹ back to catalog

STARLINK-11707 [DTC]

NORAD 64328 · 2025-124M

PAYLOAD ACTIVE UNKNOWN

§ Identity

Operator
Country
US
Launch date
2025-06-10
Launch site
AFETR
Launch vehicle
Mass (kg)
RCS (m²)

Purposes: comms

External: N2YO · Heavens-Above · Gunter

§ Orbital elements

Epoch: 2026-05-25T02:33:05.071680Z

Period
91.67 min
Inclination
42.9989°
Eccentricity
0.0000470
Mean motion
15.70894121 rev/d
Perigee alt
356.0 km
Apogee alt
356.7 km
Semi-major
6,734.5 km
B*
1.3484e-3
RAAN
288.5167°
Arg perigee
353.2203°
Mean anomaly
6.8658°
Rev number
5,485

§ Raw data

STARLINK-11707 [DTC]1 64328U 25124M   26145.10630870  .00176704  00000+0  13484-2 0  99962 64328  42.9989 288.5167 0000470 353.2203   6.8658 15.70894121 54855

JSON: /api/v1/satellites/64328 · /tle

For live sub-satellite position, see the globe view (requires WebGL).

§ Visibility from observer

Set your observer location to see the next 7 days of passes ≥ 10°. The values pass through the URL so the page stays shareable.

No JS? Fill the form by hand. The geolocation button needs JavaScript.